Regional Weather Roundup
Issued by NWS Burlington, VT

Current Version | Previous Version | Text Only | Print | Product List | Glossary Off
Versions: 1 2 3 4 5 6 7 8 9 10 11 12 13 14 15 16 17 18 19 20 21 22 23 24 25 26 27 28 29 30 31 32 33 34 35 36 37 38 39 40 41 42 43 44 45 46 47 48 49 50

000
ASUS41 KBTV 282210
RWRBTV
VERMONT REGIONAL WEATHER ROUNDUP
NATIONAL WEATHER SERVICE BURLINGTON VT
500 PM EST FRI NOV 28 2014

NOTE: "FAIR" INDICATES FEW OR NO CLOUDS BELOW 12,000 FEET WITH NO
SIGNIFICANT WEATHER AND/OR OBSTRUCTIONS TO VISIBILITY.

* THESE REPORTS ARE NOT UNDER NWS QUALITY CONTROL AND/OR DO NOT
  REPORT WEATHER SUCH AS PRECIPITATION AND FOG.

VTZ001>019-282300-
_____VERMONT_____


CITY           SKY/WX    TMP DP  RH WIND       PRES   REMARKS
BURLINGTON     MOCLDY    26  11  52 NW10      30.15R WCI  16
MONTPELIER     MOCLDY    19  13  77 NW6       30.11R
MORRISVILLE    CLOUDY    21  18  88 N5        30.12R
ST. JOHNSBURY*   N/A     24  17  74 MISG      30.08
LYNDONVILLE*   FAIR      20  12  71 W5        30.08R
MIDDLEBURY*    CLOUDY    25  17  71 CALM      30.13R
RUTLAND*       MOCLDY    25  12  58 NW6       30.10S
HIGHGATE*      CLOUDY    23  14  69 NW3       30.15S
NEWPORT*       CLOUDY    19  13  79 NW3       30.10R
BENNINGTON     CLOUDY    25  16  68 VRB6      30.12R

_____LAKE CHAMPLAIN_____


CITY           SKY/WX    TMP DP  RH WIND       PRES   REMARKS
COLCHESTER RF*   N/A     28  16  59 NW12        N/A  WCI  18

$$

NYZ007-026>031-035-052-083-282300-
_____NORTHERN NEW YORK_____


CITY           SKY/WX    TMP DP  RH WIND       PRES   REMARKS
PLATTSBURGH    CLOUDY    24  12  60 CALM      30.15R
SARANAC LAKE   LGT SNOW  18  14  84 CALM      30.05R FOG
MASSENA        CLEAR     21  11  65 W5        30.19R
OGDENSBURG*    PTCLDY    25  16  68 NW3       30.17R
POTSDAM*       CLEAR     21  14  73 W3        30.17R
WATERTOWN      CLOUDY    28  13  53 W8        30.19R
FT DRUM        CLEAR     20  14  76 W3        30.16R
ALBANY         PTCLDY    26  14  60 W12       30.19R WCI  16
GLENS FALLS    PTCLDY    27  12  53 W6        30.15R

$$
NHZ002-005-011-282300-
_____NEW HAMPSHIRE_____


CITY           SKY/WX    TMP DP  RH WIND       PRES   REMARKS
LEBANON        PTCLDY    25  16  68 VRB5      30.10R
KEENE          PTCLDY    27  18  69 N5        30.11R
MT WASHINGTON  SNOW       0   0 100 NW38        N/A  VSB 1/16WCI -29
PLYMOUTH       FAIR      25  20  80 CALM      30.09R
WHITEFIELD     CLOUDY    22  18  85 CALM      30.06R

$$

_____REGIONAL QUEBEC LOCATIONS_____


CITY           SKY/WX    TMP DP  RH WIND       PRES   REMARKS
MONTREAL       MOCLDY    23  12  63 W15G23    30.15R WCI  10
QUEBEC CITY    FLURRIES  21  14  73 W14       30.06R WCI   8
SHERBROOKE     FLURRIES  21  16  79 W12G17    30.07R WCI   9

_____REGIONAL ONTARIO LOCATIONS_____


CITY           SKY/WX    TMP DP  RH WIND       PRES   REMARKS
OTTAWA         PTCLDY    19  10  68 W7        30.17R

______KEY______
VSB  - VISIBILITY IN MILES
WCI  - WIND CHILL INDEX
HX   - HEAT INDEX
$$
NNNN


USA.gov is the U.S. government's official web portal to all federal, state and local government web resources and services.